Tracking 19634 objects as of 22-May-2019
HD Live streaming from Space Station
objects crossing your sky now

SPARC-1

Track SPARC-1 now!
10-day predictions


NORAD ID: 44226
Int'l Code: 2019-026B
Perigee: 502.0 km
Apogee: 516.6 km
Inclination: 40.0 °
Period: 94.7 minutes
Semi major axis: 6880 km
RCS: Unknown
Launch date: May 5, 2019
Source: United States (US)
Launch site: Rocket Lab Launch Complex (RLLC)
aabbcc
Your satellite tracking list
Your tracking list is empty




NASA's NSSDC Master Catalog

Two Line Element Set (TLE):
1 44226U 19026B   19142.20837589  .00001313  00000-0  65570-4 0  9990
2 44226  40.0199 136.1573 0010611  23.2619 336.8659 15.21226425  2575
Source of the keplerian elements: AFSPC